GW4485 Weather Reports


time (UTC)temp
F
wind
direction
speed
knots
gust
knots
rain 1hr
in
rain 24hr
in
rain mn
in
humidity
%
barometer
mb
20260507140042 56 114 0.9 3.5 0.00 0.00 0.00 92 1016.3
20260507134542 54 0 0.0 3.5 0.00 0.00 0.00 93 1016.2
20260507133038 53 0 0.0 0.0 0.00 0.00 0.00 93 1016.1
20260507131541 53 0 0.0 0.0 0.00 0.00 0.00 93 1016.0
20260507130035 53 0 0.0 0.0 0.00 0.00 0.00 93 1016.0
20260507124540 53 0 0.0 0.0 0.00 0.00 0.00 92 1015.7
20260507123040 53 0 0.0 0.0 0.00 0.00 0.00 93 1015.8
20260507121539 53 0 0.0 0.0 0.00 0.00 0.00 92 1015.7
20260507120035 53 0 0.0 0.0 0.00 0.00 0.00 92 1015.8
20260507114543 53 0 0.0 0.0 0.00 0.00 0.00 91 1015.7
20260507113038 53 0 0.0 0.0 0.00 0.00 0.00 91 1015.7
20260507111543 54 0 0.0 0.0 0.00 0.00 0.00 91 1015.7
20260507110036 54 0 0.0 0.0 0.00 0.00 0.00 91 1015.7
20260507104537 54 0 0.0 0.0 0.00 0.00 0.00 91 1015.8
20260507103040 54 0 0.0 0.0 0.00 0.00 0.00 91 1016.0
20260507101547 55 0 0.0 0.0 0.00 0.00 0.00 91 1016.0
20260507100043 55 0 0.0 0.0 0.00 0.00 0.00 91 1015.9
20260507094544 55 0 0.0 0.0 0.00 0.00 0.00 90 1016.1
20260507093043 56 0 0.0 0.0 0.00 0.00 0.00 90 1016.2
20260507091544 56 0 0.0 0.0 0.00 0.00 0.00 90 1016.3
20260507090040 56 0 0.0 0.0 0.00 0.00 0.00 89 1016.4
20260507084544 57 0 0.0 0.0 0.00 0.00 0.00 89 1016.5
20260507083039 57 0 0.0 0.0 0.00 0.00 0.00 89 1016.7
20260507081536 58 0 0.0 0.0 0.00 0.00 0.00 89 1016.9
20260507080044 58 0 0.0 0.9 0.00 0.00 0.00 89 1017.1
20260507074541 58 0 0.0 0.0 0.00 0.00 0.00 90 1017.0
20260507073040 58 0 0.0 0.0 0.00 0.00 0.00 89 1017.2
20260507071538 58 0 0.0 0.0 0.00 0.00 0.00 88 1017.0
20260507070039 58 0 0.0 0.0 0.00 0.00 0.00 87 1017.3
20260507064544 59 0 0.0 0.0 0.00 0.00 0.00 87 1017.3
20260507063045 60 0 0.0 0.0 0.00 0.00 0.00 87 1017.4
20260507061544 60 0 0.0 0.0 0.00 0.00 0.00 87 1017.3
20260507060050 60 0 0.0 0.0 0.00 0.00 0.00 87 1017.3
20260507054546 60 0 0.0 0.9 0.00 0.00 0.00 86 1017.3
20260507053052 61 0 0.0 0.9 0.00 0.00 0.00 85 1017.4
20260507051540 61 0 0.0 0.9 0.00 0.00 0.00 83 1017.4
20260507050039 61 0 0.0 1.7 0.00 0.00 0.00 84 1017.3
20260507044549 61 0 0.0 1.7 0.00 0.00 0.00 84 1017.3
20260507043036 61 307 0.0 3.5 0.00 0.00 0.00 84 1017.2
20260507041539 62 298 0.0 2.6 0.00 0.00 0.00 84 1017.2
20260507040042 62 291 0.0 2.6 0.00 0.00 0.00 84 1017.1
20260507034542 62 317 0.9 4.3 0.00 0.00 0.00 83 1016.8
20260507033039 62 0 0.9 3.5 0.00 0.00 0.00 83 1016.7
20260507031539 63 0 0.9 5.2 0.00 0.00 0.00 82 1016.6
20260507030040 63 268 0.9 7.0 0.00 0.00 0.00 81 1016.4
20260507024545 63 0 1.7 6.1 0.00 0.00 0.00 79 1016.4
20260507023040 64 318 1.7 7.0 0.00 0.00 0.00 76 1016.2
20260507021539 64 304 1.7 7.8 0.00 0.00 0.00 74 1016.0
20260507020045 65 315 2.6 7.8 0.00 0.00 0.00 71 1016.1
20260507014544 66 292 1.7 8.7 0.00 0.00 0.00 68 1015.9
20260507013049 67 298 0.0 7.0 0.00 0.00 0.00 69 1015.9
20260507011542 67 0 1.7 7.8 0.00 0.00 0.00 72 1016.0
20260507010042 67 0 1.7 8.7 0.00 0.00 0.00 69 1015.9
20260507004537 67 256 0.9 7.8 0.00 0.00 0.00 72 1015.9
20260507003038 67 328 1.7 8.7 0.00 0.00 0.00 72 1015.9
20260507001541 67 352 3.5 11.3 0.00 0.00 0.00 71 1015.8
20260507000040 67 311 2.6 11.3 0.00 0.00 0.00 70 1015.7
20260506234536 69 320 2.6 7.8 0.00 0.00 0.00 68 1015.7
20260506233037 68 14 1.7 12.2 0.00 0.00 0.00 69 1015.6
20260506231543 68 329 1.7 10.4 0.00 0.00 0.00 68 1015.7
20260506230039 67 312 3.5 10.4 0.00 0.00 0.00 69 1015.9
20260506224556 67 286 2.6 9.6 0.00 0.00 0.00 69 1015.9
20260506223035 67 325 3.5 9.6 0.00 0.00 0.00 69 1016.1
20260506221535 67 306 4.3 11.3 0.00 0.00 0.00 67 1016.2
20260506220041 68 165 1.7 8.7 0.00 0.00 0.00 67 1016.3
20260506214549 67 194 2.6 9.6 0.00 0.00 0.00 67 1016.5
20260506213039 68 176 4.3 12.2 0.00 0.00 0.00 67 1016.6
20260506211535 68 266 1.7 7.8 0.00 0.00 0.00 67 1016.6
20260506210043 68 260 2.6 9.6 0.00 0.00 0.00 65 1016.7
20260506204541 68 205 3.5 8.7 0.00 0.00 0.00 66 1016.8
20260506203042 68 270 3.5 9.6 0.00 0.00 0.00 66 1016.7
20260506201536 68 360 3.5 9.6 0.00 0.00 0.00 64 1016.9
20260506200036 68 213 2.6 10.4 0.00 0.00 0.00 66 1016.9
20260506194548 68 220 1.7 9.6 0.00 0.00 0.00 66 1017.2
20260506193038 67 275 1.7 9.6 0.00 0.00 0.00 67 1017.3
20260506191539 67 293 2.6 11.3 0.00 0.00 0.00 66 1017.5
20260506190042 68 252 1.7 7.8 0.00 0.00 0.00 66 1017.4
20260506184544 67 209 2.6 10.4 0.00 0.01 0.00 67 1017.4
20260506183039 67 241 1.7 9.6 0.00 0.01 0.00 68 1017.5
20260506181545 66 348 1.7 10.4 0.00 0.01 0.00 67 1017.7
20260506180050 67 269 2.6 9.6 0.00 0.01 0.00 64 1017.9
20260506174539 67 332 0.9 7.0 0.00 0.01 0.00 62 1017.9
20260506173045 66 327 1.7 9.6 0.00 0.01 0.00 63 1018.1
20260506171551 65 296 3.5 8.7 0.00 0.01 0.00 62 1018.1
20260506170040 65 326 2.6 7.8 0.00 0.01 0.00 64 1018.0
20260506164539 64 349 0.9 7.0 0.00 0.02 0.00 66 1018.0
20260506163042 64 306 2.6 7.0 0.00 0.02 0.00 67 1018.0
20260506161535 63 207 0.9 7.0 0.00 0.02 0.00 69 1017.9
20260506160043 63 360 1.7 7.0 0.00 0.02 0.00 70 1017.9
20260506154544 63 0 1.7 3.5 0.00 0.03 0.00 69 1018.0
20260506153038 62 67 1.7 4.3 0.00 0.03 0.00 70 1018.0
20260506151538 63 86 0.0 2.6 0.00 0.03 0.00 69 1018.0
20260506150036 62 0 0.9 3.5 0.00 0.03 0.00 71 1018.1
20260506144551 60 147 1.7 3.5 0.00 0.04 0.00 73 1017.9
20260506143039 59 98 0.9 3.5 0.00 0.04 0.00 77 1018.0
20260506141540 57 118 1.7 4.3 0.00 0.04 0.00 80 1017.9